Lid_Strength_Index
3 3 3 3 3 3 3 3 3 3 2 2 2 2 2 2 3 3 5 3 3 2 3 5 6 6 5 6 5 5 8 9 8 7 6 4 6 4 5 5 4 4 4 3 2
4 3 3 3 4 3 4 4 3 3 3 2 2 2 2 2 4 5 2 1 2 2 5 7 8 7 7 7 7 8 10 9 6 5 5 4 4 4 6 5 5 4 4 2 2
4 4 4 3 3 3 3 3 3 3 3 3 2 2 2 3 5 6 2 0 1 1 4 5 6 6 8 6 7 8 10 8 6 5 4 5 4 3 5 6 5 6 6 4 3
4 4 4 4 4 4 3 3 3 3 3 3 3 3 2 3 9 4 -0 -0 -0 1 4 5 6 8 7 7 6 8 7 8 7 6 5 5 4 5 4 4 4 4 5 5 5
4 4 4 4 4 4 4 3 3 3 3 3 3 3 3 6 6 3 1 -1 -0 1 4 5 7 7 8 7 6 7 7 6 6 6 5 4 5 5 5 4 3 4 4 5 4
3 3 3 4 4 4 4 4 3 3 4 4 3 3 4 8 3 2 1 -0 0 2 4 5 6 6 7 7 7 6 6 6 6 6 6 5 5 4 4 3 4 3 4 3 3
4 4 4 4 4 4 4 4 4 3 4 3 3 4 6 6 2 0 0 0 0 1 4 4 5 6 6 7 5 6 8 6 6 5 6 5 6 6 4 3 4 4 4 4 3
4 4 4 4 4 4 4 4 4 4 3 2 3 4 7 3 2 2 3 2 0 0 3 4 4 5 6 5 6 8 7 9 6 5 5 5 9 5 3 4 5 4 4 4 4
4 4 4 4 4 4 4 4 4 4 3 3 4 6 7 3 4 3 3 3 2 2 4 4 5 6 6 7 8 8 9 9 7 5 5 6 8 5 4 4 5 4 4 4 3
4 4 4 4 4 4 4 4 4 4 4 4 5 8 6 6 3 3 2 2 5 5 6 6 6 7 7 8 11 9 9 8 8 6 6 7 7 5 4 4 5 4 4 5 4
5 5 5 5 4 5 5 6 7 7 7 7 6 6 5 3 2 3 3 5 6 7 8 7 9 9 8 7 7 7 8 9 7 6 6 7 7 6 4 4 5 5 4 4 4
5 5 5 5 5 5 5 7 5 5 7 5 5 5 4 3 5 4 3 7 8 10 7 8 10 7 6 7 7 7 8 9 7 6 6 7 7 6 5 5 4 5 5 4 4
5 5 5 5 5 5 6 5 2 2 6 6 4 5 4 4 5 5 5 6 9 9 8 9 8 6 7 8 8 8 9 8 9 7 6 7 8 7 5 4 4 4 3 4 4
6 5 5 5 6 4 6 4 2 2 10 8 7 5 4 3 6 2 4 5 6 9 8 8 6 7 8 8 7 9 7 7 8 9 11 7 12 8 6 6 5 4 4 4 4
5 5 5 5 6 7 5 1 1 2 16 7 6 2 3 5 5 5 3 5 8 8 7 9 7 7 8 7 6 8 6 7 8 9 9 9 10 9 6 7 6 5 5 5 4
5 5 5 5 4 4 2 2 1 11 17 8 6 7 7 6 5 4 5 5 5 7 6 7 5 6 6 6 6 6 7 7 7 9 12 10 10 11 8 7 6 5 5 5 4
5 4 4 4 6 2 2 3 11 14 7 9 8 7 8 8 7 6 7 8 9 10 10 8 7 6 5 7 6 7 8 12 13 13 13 9 10 10 7 6 6 6 5 4 4
4 5 3 3 1 2 2 7 14 9 9 7 7 8 10 8 8 8 8 9 8 9 9 11 12 7 6 7 8 8 8 12 15 14 13 9 12 8 6 5 5 5 4 4 4
5 3 3 1 1 1 5 12 11 8 7 8 8 10 12 11 11 8 8 9 8 8 11 11 10 6 6 6 6 8 10 7 11 10 12 11 9 8 6 6 5 5 5 5 4
4 3 3 -0 0 3 7 11 8 6 6 7 11 10 13 12 13 11 9 7 8 7 6 8 11 7 7 6 6 7 6 11 10 15 15 12 11 10 9 8 6 6 6 5 4
3 5 1 -0 1 5 10 8 7 5 5 8 9 11 13 13 12 12 10 7 6 6 6 7 9 11 8 9 9 9 9 9 10 11 15 15 13 7 7 7 7 6 5 4 4
5 7 1 -0 8 8 10 8 8 7 6 7 7 9 11 12 13 12 11 8 5 6 8 6 9 13 11 8 7 8 9 9 14 13 11 12 13 6 6 6 6 5 5 4 3
7 5 0 2 11 9 7 7 7 9 8 8 8 8 9 11 14 12 9 7 6 6 7 7 10 16 14 10 8 10 9 9 10 10 13 14 13 7 6 6 5 5 5 4 4
5 8 4 4 4 8 9 9 9 6 8 7 9 8 10 12 10 13 11 8 7 7 6 6 10 13 15 14 10 11 10 9 10 13 13 13 14 9 8 7 6 5 4 4 5
4 7 5 9 8 7 7 8 9 10 7 7 9 10 11 13 13 13 11 10 8 7 6 7 12 11 11 10 10 10 10 10 10 10 12 10 11 9 7 7 6 5 5 5 5
7 8 5 7 6 7 8 9 10 9 10 10 11 10 9 12 12 13 11 10 10 8 8 8 12 11 13 11 10 11 10 10 10 10 10 10 10 6 6 5 6 5 5 5 4
2 2 5 7 8 8 8 8 9 8 9 8 9 10 11 10 8 7 9 7 7 8 9 9 11 12 14 11 10 12 9 9 9 8 9 11 8 6 7 6 6 5 4 5 5